Location: Asheville, NC
(35.6000°N, 82.5500°W)
Time: 00:11:46
(UTC-04:00)

Vanguard 2 - Pass Details

Date: 12 March 2018
Orbit: 553 x 2939 km, 32.9° (Epoch: 22 June)

Event Time Altitude Azimuth Distance (km) Brightness Sun altitude
Rises 20:26:56 0° 278° (W) 6,407 14.4 -11.3°
Reaches altitude 10° 20:34:19 10° 259° (WSW) 4,938 12.9 -12.8°
Maximum altitude 20:40:25 14° 232° (SW) 4,094 11.8 -14.1°
Drops below altitude 10° 20:45:31 10° 203° (SSW) 3,967 11.4 -15.1°
Sets 20:50:17 0° 180° (S) 4,454 11.4 -16.0°
